Wind_Speed
16 16 16 15 15 15 15 15 15 16 16 17 18 18 19 18 18 18 17 16 15 14 12 11 10 10 9 7 7 6 5 8 11 13 15 11 4 5 7 9 13 17 18 18 19 18 17 16 15 14 13 12 12 12 12 11 9 8 8 7 6 4 3 3 2 2 4 4 4 7 9 10 7 6 8 10 12 13 13 14 15 15 14 12 9 8 11 13
17 17 17 17 16 16 16 15 15 15 15 15 16 17 18 19 19 18 18 17 17 16 15 13 12 11 11 10 9 9 7 8 11 13 12 8 5 6 6 9 13 17 19 19 20 20 18 17 16 16 13 11 11 11 12 11 10 8 8 7 5 4 3 3 3 2 4 4 3 6 8 9 7 5 7 10 12 13 13 14 14 15 15 13 11 8 10 12
17 18 18 18 18 17 17 17 16 16 15 15 15 15 16 17 18 19 18 17 17 17 17 16 14 13 13 13 12 12 11 10 11 10 9 7 8 9 8 10 13 17 20 21 22 22 20 19 18 17 14 11 11 11 12 11 10 9 7 6 4 4 3 3 3 3 3 3 3 5 7 8 7 5 7 10 11 12 13 13 13 14 15 14 12 9 11 12
16 16 17 18 18 18 18 18 18 17 16 16 15 15 15 16 16 17 18 18 17 17 18 18 17 15 14 15 15 14 14 14 11 9 8 8 10 13 12 12 14 17 22 22 22 22 21 20 19 18 14 12 12 11 12 11 10 9 8 6 4 4 3 3 3 3 3 4 4 5 6 7 6 5 7 9 11 11 12 13 13 13 13 14 13 11 11 12
15 15 16 16 17 18 18 18 19 18 18 17 16 16 16 15 15 16 16 16 17 18 18 18 19 17 16 16 16 17 18 16 12 10 10 11 12 14 14 15 15 17 21 23 22 22 21 20 20 19 15 13 13 12 11 11 10 9 8 6 5 5 4 3 3 3 4 4 4 5 6 7 7 7 7 9 9 9 10 12 13 13 12 13 13 12 11 11
16 15 15 16 16 17 17 18 18 18 18 18 17 17 17 16 16 16 15 15 15 17 18 19 19 19 18 17 17 19 20 17 15 13 12 13 14 13 13 15 16 16 20 23 22 22 21 21 20 18 15 14 14 13 11 12 11 10 8 7 6 6 5 4 3 2 4 5 5 6 6 6 8 8 9 8 8 8 9 11 12 14 13 12 12 12 11 11
17 16 16 15 15 16 16 17 17 17 17 17 17 18 18 18 17 16 16 16 15 14 16 18 20 20 20 19 19 20 21 21 19 16 14 14 14 13 13 15 17 16 18 22 22 21 20 21 20 18 17 15 15 13 12 13 12 10 8 8 7 7 6 4 3 2 4 5 5 7 7 7 8 8 9 9 8 9 9 10 12 14 14 12 11 11 11 11
18 17 17 16 16 16 16 16 17 17 17 16 16 17 18 18 18 18 17 17 16 14 14 15 19 20 21 21 21 21 24 25 20 17 17 15 15 15 13 14 17 16 17 21 22 22 22 22 20 20 18 17 17 14 13 13 11 10 9 9 8 8 6 4 4 2 4 5 5 7 8 7 8 8 9 9 8 9 8 9 11 13 14 13 12 11 11 11
19 18 18 18 17 17 16 17 17 17 17 16 16 16 17 18 19 19 18 18 17 16 14 13 15 19 21 22 22 24 27 26 20 21 20 16 16 16 15 14 17 17 17 20 23 23 22 22 22 21 20 19 19 16 15 15 12 11 11 10 9 8 7 6 5 4 4 5 5 7 8 8 8 9 9 9 9 9 9 9 10 12 13 13 12 11 10 10
20 19 19 19 19 19 18 18 18 18 17 17 16 16 17 17 18 19 19 19 18 17 16 14 13 15 20 23 23 27 29 26 22 24 23 19 17 17 16 15 16 18 19 19 22 23 21 22 24 23 22 21 21 18 17 17 14 12 11 10 9 9 8 7 6 6 5 5 5 6 8 9 9 10 10 10 10 9 9 9 9 11 12 13 12 12 11 10
20 20 20 20 20 20 20 20 19 19 18 18 17 17 17 18 18 18 19 19 19 19 17 16 14 13 17 21 25 30 29 26 25 25 26 22 19 18 17 17 17 19 20 20 21 23 24 25 25 24 23 23 22 20 18 17 14 12 12 11 9 9 9 8 7 7 7 6 6 6 8 9 9 10 10 10 12 11 10 9 9 10 10 12 12 12 11 11
20 21 21 21 21 21 21 21 21 21 20 19 18 18 18 18 18 18 19 19 19 19 19 18 16 14 14 18 27 31 26 25 27 27 27 24 20 20 19 19 19 20 21 21 22 25 27 27 25 25 23 22 22 21 19 18 16 14 13 11 10 9 10 9 9 9 9 8 8 7 8 9 9 10 10 11 12 11 11 9 9 9 9 10 12 12 11 10
21 21 21 22 22 22 22 22 22 22 22 20 20 19 19 19 19 19 19 19 19 20 20 19 18 16 15 18 24 27 24 26 30 29 28 26 24 23 22 21 21 21 23 24 25 26 27 27 26 26 23 23 25 22 20 19 18 16 13 12 11 10 11 11 10 10 10 10 9 9 9 9 9 9 10 11 11 11 11 10 9 9 8 9 10 11 11 10
21 21 22 22 22 23 23 23 23 23 23 22 21 20 20 19 19 19 19 19 20 20 20 20 19 17 17 19 19 20 23 27 31 31 29 29 28 26 24 23 22 23 24 25 26 24 25 26 26 25 23 25 25 20 20 21 20 18 16 14 13 12 13 12 11 10 11 11 10 10 10 9 9 9 10 11 11 10 10 10 9 9 8 8 9 10 10 10
22 22 23 23 23 23 23 23 24 24 24 23 23 22 21 20 20 20 20 20 19 20 20 21 21 19 19 21 18 16 20 27 31 32 31 31 31 29 28 26 24 24 24 24 26 25 24 25 25 25 25 26 24 21 22 22 22 21 18 16 15 14 13 14 12 11 12 12 12 11 10 10 10 10 10 11 10 10 9 9 9 8 8 8 8 9 10 10
24 24 24 24 24 24 24 24 24 25 25 24 24 23 22 22 21 21 22 21 20 19 20 21 21 21 21 21 19 18 18 24 31 33 33 33 33 32 30 28 27 26 25 25 26 27 26 25 25 25 26 26 25 24 24 23 24 23 19 17 16 14 14 15 14 12 12 12 12 12 12 11 11 11 11 11 10 9 9 8 8 8 8 8 9 9 10 10
25 25 25 25 25 25 25 25 25 25 26 25 25 25 24 23 22 22 23 22 22 20 20 21 21 22 22 21 21 20 18 21 29 33 33 34 35 34 32 31 30 28 27 27 27 27 27 27 27 25 25 25 27 27 25 24 24 22 20 19 17 16 15 16 17 16 14 13 13 12 13 13 13 13 12 11 10 9 9 8 7 7 7 8 9 9 10 10
26 26 27 27 27 26 26 26 26 26 26 26 26 26 26 24 24 23 23 23 23 22 21 21 21 22 22 22 23 22 19 20 25 31 34 35 36 36 35 34 33 31 29 29 28 28 28 28 27 28 28 28 28 26 23 21 21 20 19 18 19 19 17 18 19 19 17 15 14 13 13 14 13 13 12 11 10 9 9 8 7 7 6 7 8 9 10 10
29 29 29 30 30 29 28 27 27 27 27 27 27 27 27 26 25 25 24 24 24 24 23 21 21 22 22 23 24 23 20 20 23 28 32 35 37 38 37 37 35 33 32 30 30 29 29 28 28 28 27 25 24 22 20 19 20 19 18 18 18 19 19 19 20 21 20 18 17 15 15 15 14 13 12 11 10 9 9 9 8 7 6 6 7 8 9 10
31 31 32 32 33 32 30 30 29 28 28 28 28 28 28 28 27 26 25 25 25 25 25 23 22 23 23 23 23 23 21 21 22 25 29 34 37 39 39 38 37 36 34 32 31 30 30 30 29 26 23 21 21 21 21 21 21 20 21 20 18 18 19 20 21 22 22 20 19 18 17 16 15 12 12 11 9 9 9 9 9 7 6 5 5 7 8 9
34 34 34 34 35 35 33 32 32 30 29 29 29 30 29 29 29 28 26 26 26 26 26 25 23 23 24 23 22 23 22 21 22 25 27 31 36 40 40 40 39 39 37 34 33 33 32 30 29 26 24 23 22 22 23 23 21 21 23 23 20 19 20 22 23 23 22 21 20 19 19 17 16 14 12 12 10 10 10 10 9 8 8 7 6 6 6 7
35 36 36 36 37 37 36 35 34 32 31 31 30 31 30 30 30 29 28 27 27 27 26 26 24 23 25 25 23 22 22 21 22 25 26 28 34 39 40 41 41 40 40 39 36 35 33 30 28 28 28 27 24 24 26 24 22 22 23 25 24 21 20 23 26 26 24 23 22 21 20 18 17 15 14 12 11 11 11 10 9 8 8 8 8 7 6 5
36 36 37 37 38 39 38 37 36 34 34 33 32 32 31 31 31 31 30 27 27 28 28 27 25 24 25 25 24 23 22 21 23 25 26 27 31 37 40 41 41 43 43 41 38 36 35 31 29 31 32 29 26 27 28 27 26 25 25 28 28 24 23 23 26 28 27 25 24 23 22 20 19 17 15 13 12 11 12 11 10 9 9 9 8 8 8 7
37 37 37 37 39 40 39 38 37 36 35 35 34 33 33 32 32 32 32 29 26 29 30 28 26 25 25 25 25 24 22 22 22 23 25 27 29 34 39 40 42 45 44 42 40 39 37 33 33 35 33 30 30 31 30 28 29 27 27 31 30 26 24 23 25 29 29 28 26 24 23 22 20 18 17 16 14 13 13 12 12 11 10 10 9 9 8 8
39 38 38 37 38 40 40 39 39 37 36 36 35 35 35 34 33 33 32 31 27 28 31 30 28 28 27 26 26 25 23 23 22 23 25 27 28 31 37 41 44 46 45 44 43 42 40 37 36 36 33 33 35 34 31 29 28 28 29 32 31 28 25 25 28 30 31 30 28 26 25 22 21 20 19 18 17 16 15 14 14 13 12 11 11 11 10 9
42 41 39 38 39 39 41 40 39 39 38 37 36 36 36 35 35 34 33 33 29 28 31 31 29 29 28 28 27 26 25 25 24 23 23 25 26 30 35 40 43 45 45 46 46 45 44 41 37 36 36 37 37 35 32 31 30 29 29 31 33 32 29 29 31 29 30 30 28 28 26 22 21 22 21 20 19 19 19 16 15 14 12 13 13 12 11 12
42 42 41 41 40 40 41 41 40 40 39 38 37 37 38 37 37 35 34 35 31 27 30 32 30 29 29 29 28 27 26 25 25 24 23 23 26 29 33 37 42 46 48 48 48 48 47 42 37 37 40 41 39 36 34 32 31 29 29 31 35 34 33 34 33 30 30 29 28 29 27 24 24 24 23 22 22 21 19 17 16 14 14 14 14 14 14 13
41 42 42 42 42 41 42 42 42 41 40 39 38 38 39 38 38 37 36 37 33 28 29 30 30 29 29 28 28 27 26 26 25 25 24 24 26 28 31 35 39 45 48 47 48 48 47 43 38 39 43 43 40 37 36 34 32 31 31 33 35 36 36 36 33 30 28 28 29 28 29 29 26 24 23 22 23 21 17 17 15 15 15 15 15 15 15 15
42 42 42 43 43 43 42 43 44 43 41 41 40 40 39 39 39 38 38 39 34 29 29 30 30 31 30 29 28 28 28 28 27 25 24 25 25 26 30 33 36 43 47 47 48 50 49 46 42 43 46 45 40 39 40 38 36 36 33 32 35 37 37 36 35 33 28 28 32 29 29 32 28 25 23 23 23 18 15 15 15 15 16 16 16 15 14 15
45 44 44 43 44 44 44 44 45 45 44 43 42 41 41 41 40 40 42 40 33 30 31 31 31 31 31 30 30 29 29 30 28 26 26 26 25 25 28 31 34 41 46 47 50 53 53 49 46 47 49 46 43 44 45 42 41 41 35 32 34 37 39 39 39 37 32 32 36 33 29 32 31 28 26 24 21 17 16 17 16 17 18 17 16 15 14 14
47 46 46 45 45 45 45 46 46 46 46 45 43 43 43 42 42 44 45 38 31 33 33 32 32 31 32 32 31 30 30 31 30 28 27 26 26 26 27 30 34 39 44 48 51 54 54 51 49 50 50 47 47 50 48 44 45 44 38 36 37 37 40 41 42 44 40 36 36 35 32 34 32 29 28 24 20 19 19 17 18 19 19 18 17 17 17 16
49 48 48 47 47 47 47 47 47 47 48 47 46 45 44 45 46 47 44 35 32 35 34 33 33 32 32 33 32 32 31 31 31 30 28 27 27 26 26 29 33 36 40 44 49 54 55 51 50 51 51 49 51 52 48 48 51 48 44 45 43 40 41 43 45 49 49 43 37 35 36 38 34 28 28 26 20 20 20 18 20 21 20 19 19 19 19 18
50 50 50 49 49 49 49 49 49 49 49 48 48 48 47 49 49 46 41 34 33 36 35 34 34 33 33 33 33 33 32 32 32 31 29 28 27 26 26 28 31 33 36 41 45 52 55 53 52 53 52 52 52 53 51 52 54 51 50 49 46 45 45 45 47 50 51 47 42 42 41 40 37 28 27 26 21 20 21 22 23 22 20 21 20 20 19 19
50 51 52 51 51 51 51 51 50 51 51 50 50 50 50 52 49 43 39 35 34 37 38 37 36 35 34 34 34 33 33 33 33 32 32 30 30 29 27 28 29 32 36 39 43 49 53 54 54 54 54 54 54 53 53 53 54 52 51 50 48 48 47 45 47 49 48 45 44 48 47 43 39 31 25 25 24 24 25 25 25 22 20 21 22 20 18 16
51 52 52 53 53 53 53 53 52 52 53 53 53 53 54 53 47 43 40 36 35 38 39 38 38 37 37 36 36 34 34 35 34 33 33 33 32 30 28 28 29 31 36 40 42 46 50 52 54 53 53 55 55 54 55 56 56 55 54 54 51 48 47 46 45 41 39 40 44 49 49 44 40 33 26 23 26 29 28 26 25 23 21 22 23 20 15 11
53 53 53 54 54 55 55 55 54 54 55 55 56 57 56 52 47 45 43 38 37 39 40 40 40 40 39 38 37 36 35 36 34 34 34 33 32 31 29 28 29 30 35 38 41 43 46 50 54 53 53 55 55 53 56 58 59 59 59 58 52 47 48 47 43 39 35 38 45 49 49 45 41 36 28 26 29 31 29 27 25 22 21 23 24 21 16 12
55 56 56 56 56 57 57 57 56 56 56 58 59 58 55 52 49 49 46 40 39 41 42 42 41 41 41 39 38 37 37 36 36 35 35 34 34 33 31 29 29 31 34 36 38 41 43 48 53 53 53 55 54 53 56 58 59 61 60 58 55 54 52 45 41 42 41 42 46 46 45 44 43 37 29 30 33 32 30 28 25 21 20 20 22 22 19 16
57 58 59 58 58 59 59 60 59 58 58 60 61 59 56 54 52 50 47 43 42 45 44 43 42 42 41 39 39 39 37 37 37 36 36 36 35 33 32 30 29 31 34 36 38 40 42 44 49 52 52 53 54 54 57 58 58 60 61 60 61 60 57 52 47 44 41 43 47 45 42 42 41 36 30 31 32 30 29 27 25 22 18 16 17 19 21 20
59 60 61 61 61 61 62 62 61 61 61 63 62 60 57 55 53 51 49 46 46 48 46 44 43 43 42 41 42 41 38 38 39 37 37 37 36 34 33 31 30 30 32 35 37 40 41 41 45 50 50 52 55 57 59 60 59 61 64 64 63 62 60 59 56 51 44 39 42 45 46 45 41 35 33 33 32 30 29 27 26 23 19 16 15 15 19 21
61 62 63 63 63 64 64 65 64 63 64 64 62 60 58 56 55 53 51 50 50 51 49 46 44 44 43 42 44 44 40 40 41 39 38 38 37 36 34 32 30 30 31 34 36 39 41 40 41 47 50 52 57 59 59 59 60 63 66 65 66 67 63 58 56 55 51 42 37 41 47 46 40 36 34 32 33 33 31 30 28 24 21 18 15 15 19 21
63 64 64 64 65 66 66 67 66 65 65 63 62 62 60 59 57 55 53 53 53 54 52 49 48 46 45 44 45 45 43 42 42 40 39 39 37 36 35 32 31 31 31 34 37 38 40 40 41 46 50 52 55 58 57 58 60 63 64 65 67 67 64 62 60 57 55 51 43 43 49 45 38 38 35 32 34 34 32 32 30 24 21 18 14 15 18 21
64 65 65 65 66 67 68 68 68 67 66 64 63 63 62 60 58 56 56 56 56 56 55 53 51 48 47 46 46 46 45 44 43 42 41 40 38 38 36 33 31 31 32 34 36 37 38 40 42 45 49 49 51 55 57 57 58 60 63 65 67 67 65 66 66 59 55 56 50 45 49 46 42 43 37 32 34 33 32 33 31 26 23 18 14 14 17 19
65 65 66 66 67 68 68 68 67 67 66 65 63 63 63 61 59 59 59 59 58 57 56 55 53 50 48 47 46 47 47 45 44 43 42 41 39 38 36 33 32 33 34 35 36 37 39 42 42 42 45 48 48 51 56 58 57 59 63 64 66 69 67 64 65 61 57 60 56 48 49 48 47 45 36 30 31 31 31 32 29 25 22 18 16 18 18 18
65 65 66 66 67 67 67 67 66 66 66 66 65 64 63 62 61 61 61 60 58 58 57 56 54 51 50 48 47 48 47 46 46 44 43 42 39 37 36 35 35 34 35 36 38 39 40 41 41 41 44 48 48 50 56 60 59 60 63 65 65 67 67 65 65 64 64 64 58 54 57 54 49 46 38 30 29 28 29 30 27 26 23 20 19 21 21 20
65 65 65 66 66 66 65 65 66 66 66 66 66 64 63 62 62 61 61 60 59 58 58 57 54 52 50 49 48 48 48 48 47 45 44 43 40 38 38 37 37 36 36 38 39 39 39 40 42 42 44 46 47 50 54 57 59 61 63 64 65 65 66 67 67 67 70 68 63 63 63 55 49 50 43 34 31 30 29 29 29 29 26 22 21 22 23 24
65 65 64 64 64 64 63 63 63 63 64 64 64 62 62 62 62 62 62 61 60 58 58 57 55 54 52 51 50 49 49 49 48 47 46 44 41 40 40 39 38 37 37 37 39 38 39 42 44 43 43 44 44 46 49 51 56 60 61 62 64 65 65 66 69 70 70 70 70 70 66 55 50 50 45 38 35 32 30 29 29 28 24 20 21 24 26 26
64 64 62 61 60 61 61 60 61 62 63 63 62 62 62 63 63 63 62 62 60 58 57 57 56 55 53 52 50 50 50 50 49 48 47 45 43 42 42 41 39 38 37 37 38 38 39 43 43 41 42 42 40 41 45 49 52 54 57 60 62 64 65 67 70 71 68 70 73 71 68 63 56 52 49 44 36 31 30 29 28 26 22 18 18 21 23 23
62 62 62 60 57 56 58 59 59 59 59 61 61 61 62 63 63 63 62 61 60 58 58 57 56 55 53 52 51 50 50 51 51 50 48 47 46 44 43 42 41 40 38 38 38 38 38 40 40 40 41 40 39 39 41 44 48 49 53 57 58 59 62 64 67 68 68 72 73 68 67 67 61 55 54 49 40 33 30 30 29 28 25 21 17 18 19 20
59 59 59 58 55 52 53 55 56 56 56 59 60 60 61 62 62 63 63 63 61 60 59 57 55 54 53 52 53 52 51 52 52 51 50 49 48 46 44 43 42 40 38 39 39 37 36 37 38 38 39 38 38 38 38 41 44 46 49 53 54 55 57 59 61 63 66 70 69 66 67 68 63 56 53 50 47 40 33 31 32 31 29 25 21 19 20 22
56 55 55 55 52 49 48 50 53 54 54 57 58 59 60 60 61 63 64 64 61 57 56 55 54 54 54 54 54 53 52 52 52 53 53 52 50 47 45 44 43 41 41 41 40 37 36 37 38 37 37 37 37 37 38 39 41 44 47 49 51 51 51 53 57 59 62 65 65 65 68 69 63 55 51 50 51 47 40 35 33 32 30 27 24 24 24 24
52 52 51 51 49 47 46 47 49 51 52 54 56 58 58 58 60 62 62 61 58 55 55 56 57 57 57 55 54 54 54 55 54 55 55 53 51 49 48 47 47 46 45 43 39 38 39 40 39 39 39 37 36 36 37 38 40 44 47 48 51 52 51 52 56 58 60 61 62 64 66 66 62 57 54 50 49 50 47 39 35 34 31 27 26 28 28 26
46 48 48 47 46 44 43 44 46 49 50 52 55 57 57 56 57 58 58 56 55 55 57 58 58 58 56 55 55 56 56 55 54 55 55 53 52 51 50 49 49 49 47 44 40 39 41 41 40 40 40 37 35 36 37 38 42 45 45 45 48 51 52 54 56 57 58 58 60 63 63 61 59 57 55 50 48 51 48 40 36 35 33 28 26 29 31 28
Wind_Direction
308 307 307 307 308 309 310 310 308 305 301 295 290 286 281 276 272 267 264 262 261 257 252 248 239 228 224 222 225 232 225 210 210 213 218 227 215 199 204 191 188 187 189 192 191 192 192 192 189 179 166 156 144 137 142 142 141 141 136 131 130 139 136 141 140 141 141 128 131 127 114 102 93 114 128 132 134 132 133 133 135 131 129 128 128 154 151 134
308 306 305 305 304 304 305 305 306 307 306 304 301 295 289 282 277 272 266 261 259 258 254 249 244 234 226 222 221 227 231 220 216 224 235 238 208 199 195 186 191 190 188 190 193 194 195 194 188 181 173 166 158 148 147 147 148 147 144 139 140 162 160 152 145 139 136 115 125 129 114 105 98 114 134 134 132 131 131 131 134 134 130 126 127 146 145 129
311 308 305 304 303 302 301 301 301 301 303 305 305 303 298 291 284 278 271 264 258 256 254 250 246 239 230 224 221 224 228 228 229 236 244 238 216 215 204 190 194 192 188 190 194 195 196 196 187 182 178 171 168 158 151 153 155 153 150 143 143 168 154 136 143 129 119 110 121 129 118 110 101 113 139 136 132 133 131 129 132 133 131 127 126 137 136 124
318 313 309 306 303 301 300 299 299 299 299 300 301 303 302 299 294 287 279 270 262 254 252 250 246 241 235 228 224 224 227 232 237 239 233 223 214 216 211 198 198 196 191 192 195 196 198 197 188 183 182 178 175 165 156 157 160 161 155 146 146 163 154 123 133 122 114 121 127 129 121 112 103 115 136 137 134 135 133 129 128 127 128 128 125 128 127 120
327 322 318 313 308 304 301 299 298 297 298 298 299 299 298 299 299 296 289 278 267 257 251 248 246 241 236 231 226 226 229 233 236 233 223 218 218 221 214 202 202 201 196 195 195 198 200 198 193 187 185 184 178 170 165 164 163 166 164 159 158 160 159 140 135 124 109 119 136 135 120 111 111 115 127 134 132 134 135 133 128 121 120 123 123 122 119 114
329 327 324 320 317 312 307 303 300 297 297 297 298 297 297 296 296 297 295 289 278 265 254 247 245 241 236 233 228 228 232 235 234 231 224 220 224 228 220 207 205 204 201 199 197 199 201 200 199 191 189 188 181 173 172 173 165 166 167 165 165 152 151 149 149 128 100 113 139 138 129 120 118 116 120 126 125 128 135 137 132 123 117 117 118 118 116 113
327 327 326 323 321 318 315 311 306 303 300 299 297 296 295 295 294 293 292 293 288 278 263 250 245 240 237 233 229 229 231 234 235 232 227 222 225 230 226 213 209 208 204 203 201 201 202 204 203 196 195 194 186 176 173 178 171 169 166 157 157 146 145 154 162 142 99 114 131 131 135 129 120 118 117 120 119 119 130 137 135 128 122 119 117 117 116 113
321 323 323 323 322 320 318 315 312 309 307 305 302 298 295 294 292 291 290 290 289 287 277 260 248 241 237 233 230 228 228 234 237 234 231 225 224 227 228 219 213 212 207 205 204 202 202 204 204 201 201 198 192 180 173 176 173 171 164 154 154 147 149 159 169 159 110 116 122 120 129 129 122 117 114 117 117 114 121 132 137 134 129 124 120 117 116 114
315 316 317 318 319 319 318 317 315 313 312 309 307 303 299 295 292 290 290 289 288 287 284 275 258 245 238 233 230 227 230 238 235 232 235 226 222 226 226 222 216 213 209 206 206 205 205 203 203 204 203 202 197 186 175 175 175 173 168 162 159 154 159 165 173 172 125 113 118 117 121 124 120 112 107 109 110 111 117 127 136 138 134 130 125 121 118 116
310 310 311 312 313 314 315 316 316 315 315 313 310 306 302 299 296 293 290 288 287 286 284 280 271 254 241 235 231 228 231 237 231 231 236 227 222 225 224 222 218 215 211 208 207 207 207 203 205 207 205 205 202 190 181 181 180 174 171 172 168 165 170 172 180 177 145 124 126 125 121 122 116 108 106 103 101 104 112 123 133 138 139 134 130 129 126 122
310 308 307 306 307 308 309 310 311 313 314 315 313 309 305 301 299 297 294 291 288 286 284 280 276 267 250 238 233 231 231 235 232 230 234 229 222 224 224 222 220 216 214 210 207 207 206 206 207 208 207 207 205 195 186 184 181 177 177 178 176 177 177 178 187 183 164 149 145 142 130 124 118 112 109 103 101 100 103 113 124 133 141 139 135 135 135 132
312 310 307 304 303 302 304 305 306 307 308 311 312 311 308 304 301 298 296 295 292 289 286 281 276 272 262 244 237 237 233 234 234 229 232 232 224 223 223 222 220 217 216 211 207 207 208 210 210 210 210 207 207 202 190 185 184 184 184 183 185 188 187 183 187 187 176 163 155 154 144 130 123 120 115 106 104 104 102 104 114 125 137 144 142 140 140 140
311 310 308 305 302 300 299 299 300 301 302 304 306 308 308 307 305 301 298 296 294 292 289 286 280 272 265 253 245 244 236 232 233 230 231 232 225 223 223 222 220 217 217 214 212 210 210 211 211 212 210 205 209 206 194 187 188 190 189 191 193 195 195 189 187 190 183 172 165 165 156 139 131 129 122 112 107 106 103 102 108 117 129 141 146 145 145 147
306 307 306 305 303 301 298 297 296 296 297 299 300 302 303 304 305 304 302 298 295 293 291 290 286 277 267 260 257 251 239 232 233 229 227 230 227 224 224 223 221 218 218 218 219 218 215 213 213 214 209 207 211 207 196 193 194 197 196 197 197 196 198 190 183 189 185 177 175 177 167 147 141 140 129 118 112 108 104 103 105 114 124 134 144 148 151 152
301 302 303 303 303 301 299 297 294 293 293 294 295 296 297 299 301 302 302 301 299 295 292 290 288 284 275 266 263 255 241 232 233 230 226 227 227 224 225 224 222 221 220 220 223 222 220 219 218 215 211 210 212 208 202 200 201 202 199 202 202 200 199 188 180 185 188 181 179 183 175 156 152 154 141 127 122 117 109 105 105 112 122 129 138 147 153 158
296 297 298 299 300 299 299 297 294 292 290 290 290 290 292 293 295 297 298 298 299 297 294 290 287 286 282 275 267 257 245 234 233 231 226 226 227 224 225 225 223 223 222 221 222 222 222 221 220 219 216 213 211 209 206 203 206 205 201 204 205 203 202 191 178 176 183 182 179 184 178 164 160 161 152 137 133 129 122 114 109 111 120 129 136 144 154 162
294 294 294 294 295 296 296 296 294 291 289 288 287 286 287 288 289 291 292 294 295 296 294 291 289 286 283 281 272 261 251 239 236 233 228 226 227 225 223 224 224 223 223 222 222 223 222 220 221 222 222 217 213 212 208 203 205 207 203 203 200 200 204 199 184 174 174 175 175 183 180 172 168 166 157 145 143 141 135 129 121 118 119 127 135 144 153 163
295 294 293 292 291 291 292 292 292 290 289 287 285 284 283 283 284 285 287 289 291 291 290 290 289 286 283 280 275 269 258 248 241 236 231 227 227 227 223 223 223 222 222 223 223 224 224 221 219 220 221 219 214 212 209 203 204 207 203 199 199 197 198 200 190 176 172 171 173 178 178 174 172 168 161 154 152 149 147 144 137 131 127 129 135 143 153 162
294 294 294 292 290 289 289 288 288 288 287 286 283 282 281 280 280 280 282 284 286 287 287 288 288 287 284 280 278 277 268 255 247 241 235 229 228 228 225 223 224 222 221 222 224 224 225 224 220 220 221 218 214 211 207 204 205 204 198 197 202 200 196 199 194 183 175 175 177 178 179 177 174 172 167 162 160 158 156 154 151 148 143 141 141 145 153 161
291 292 293 292 291 289 288 286 285 284 284 284 282 280 279 279 278 277 278 279 280 282 283 284 286 286 283 280 279 279 274 261 251 246 239 233 230 229 227 224 223 223 221 221 223 224 226 227 227 228 226 220 216 213 210 207 203 200 197 196 201 204 201 200 196 189 182 180 182 183 183 180 174 173 172 168 168 170 166 162 161 162 162 163 158 155 156 160
289 289 290 290 289 289 288 286 283 282 281 281 280 279 278 277 276 276 275 276 276 277 279 280 282 283 282 280 279 277 276 268 256 248 242 235 232 230 229 225 224 225 223 220 222 223 224 227 231 230 225 223 219 216 215 210 202 201 199 193 196 208 208 204 199 191 186 187 188 189 187 183 178 177 177 172 174 179 177 171 169 171 174 178 179 173 166 164
288 288 287 287 287 286 286 285 283 281 279 278 277 277 276 275 274 274 273 273 274 274 275 277 278 280 281 280 279 277 276 271 259 250 243 237 233 232 230 227 225 225 223 222 222 224 224 225 230 228 223 221 217 216 218 212 205 203 199 193 196 209 210 204 199 192 189 191 192 193 190 187 184 184 185 180 179 182 184 185 183 181 185 191 192 185 179 177
287 287 286 285 284 284 284 284 282 280 278 277 276 275 274 274 273 273 272 271 273 273 272 273 274 276 277 278 277 275 273 270 263 256 248 241 235 232 231 229 227 226 225 224 223 224 224 224 227 227 224 220 215 215 216 214 210 203 199 196 196 206 208 200 198 193 191 193 193 196 195 192 191 191 192 189 186 187 189 194 196 195 196 197 200 195 189 190
287 286 285 284 283 282 282 282 280 279 278 276 275 274 273 272 272 271 271 270 270 271 270 269 269 269 271 273 273 272 270 269 266 261 253 245 238 234 232 229 228 228 227 226 224 223 223 222 223 226 225 220 216 215 213 213 211 202 200 197 196 208 207 198 201 196 192 195 195 198 200 199 196 193 195 194 192 193 195 198 201 204 202 198 202 204 204 205
286 286 285 283 282 281 280 280 278 278 277 275 274 274 272 271 271 270 270 269 268 269 270 269 268 267 267 268 268 268 268 267 265 261 256 249 241 237 234 229 227 228 227 226 225 223 222 219 220 224 224 220 220 218 213 211 210 205 202 198 199 210 206 202 208 201 198 200 199 202 203 200 200 199 201 199 194 194 196 199 203 206 205 204 209 213 217 219
286 285 284 282 280 280 279 278 277 276 275 275 274 273 271 271 270 269 268 267 265 266 268 269 268 266 266 266 266 266 265 264 264 262 260 254 244 238 236 232 228 227 226 226 225 224 222 219 218 221 220 220 223 221 215 212 210 207 203 199 203 206 204 208 211 205 204 204 203 207 204 200 203 206 209 207 201 201 200 200 204 207 208 212 218 221 222 222
285 284 283 281 279 278 277 277 276 274 273 273 273 272 271 270 269 269 268 266 263 262 265 267 267 265 264 264 265 265 264 263 263 262 259 255 246 239 237 236 231 227 226 225 225 225 225 222 218 219 218 219 222 223 219 215 210 208 203 201 204 203 204 211 212 208 208 209 210 211 208 208 209 208 211 212 212 211 204 202 205 205 207 213 219 224 225 225
283 282 281 280 278 276 275 275 274 273 272 271 271 270 270 269 269 268 267 265 263 260 260 262 264 263 261 260 261 263 263 262 260 259 258 254 250 242 237 237 233 231 228 225 227 228 227 224 220 221 221 219 220 221 221 218 213 211 207 203 203 203 206 213 216 213 211 216 217 213 214 215 212 211 214 215 218 216 205 203 205 202 204 207 212 219 222 225
281 280 278 277 276 275 273 273 273 272 271 270 268 268 268 268 267 267 265 264 262 261 260 260 261 260 259 258 258 259 259 260 258 257 257 255 255 247 238 237 234 233 231 225 226 228 227 223 219 221 222 220 219 219 221 219 216 214 209 203 203 204 207 214 217 213 216 225 220 214 220 220 215 214 219 223 223 218 205 204 206 204 205 204 206 213 219 225
278 277 276 274 274 273 272 271 271 271 270 268 267 266 266 265 266 265 263 262 263 263 260 259 258 258 259 257 255 254 254 257 257 255 254 254 255 249 240 237 233 234 233 226 224 227 226 221 218 220 221 220 219 219 221 218 216 216 209 202 204 207 209 214 216 212 218 228 219 215 222 223 217 215 221 230 227 222 219 218 217 213 214 211 206 209 216 222
276 275 274 272 271 271 270 269 268 268 268 267 266 264 262 262 262 262 261 263 264 262 258 257 257 257 257 255 254 252 252 254 256 255 253 253 254 250 243 238 233 233 234 229 225 227 227 221 218 220 220 219 218 219 221 217 216 217 212 209 211 212 211 214 217 214 218 226 218 215 224 226 223 215 219 227 224 225 230 228 225 222 222 219 211 213 217 218
274 274 272 271 270 269 268 267 266 266 265 265 264 262 260 260 259 259 262 263 262 260 258 256 255 253 254 254 254 252 251 252 255 256 254 253 253 252 247 242 237 236 237 236 230 229 229 224 220 220 219 218 218 220 220 217 217 217 216 217 217 218 216 215 219 218 221 226 220 217 225 229 228 218 216 224 225 228 230 223 226 230 229 227 223 228 230 227
273 272 271 270 268 267 266 266 265 264 263 263 262 261 258 257 257 258 261 261 259 259 257 254 252 251 251 252 252 252 251 251 252 254 254 253 253 252 248 243 239 236 237 239 235 231 231 227 222 221 220 219 218 219 219 217 218 218 217 218 216 219 220 218 220 221 223 227 225 223 226 230 233 223 214 222 223 222 221 218 226 235 237 235 235 241 245 245
273 271 269 269 267 266 265 264 263 263 262 261 260 259 257 256 257 258 258 257 256 257 256 254 251 250 249 250 251 251 250 250 250 252 254 253 253 253 251 248 243 236 233 235 234 233 233 230 226 223 222 221 219 218 219 219 220 220 219 220 217 218 221 221 223 224 225 228 228 230 229 229 233 224 209 215 213 210 214 215 221 230 236 237 239 247 255 255
271 268 267 266 265 264 263 262 261 260 260 259 257 257 256 256 257 256 255 254 253 253 254 253 251 249 248 248 249 249 249 249 250 251 253 253 254 254 253 253 249 240 233 233 233 232 233 232 230 226 225 224 221 218 218 219 221 221 221 223 221 218 222 225 226 227 230 230 230 235 234 229 232 225 208 207 206 205 211 212 216 225 231 234 240 250 256 256
270 267 265 263 263 262 261 260 258 257 257 257 256 255 257 257 256 254 252 249 249 250 251 250 249 248 247 247 248 248 249 250 249 250 251 252 253 253 251 251 249 241 236 236 236 234 232 232 231 227 225 226 223 220 219 218 219 220 221 224 223 221 224 229 230 229 231 229 229 238 239 231 232 230 215 210 211 207 209 212 215 222 227 232 243 252 255 262
268 266 263 261 260 259 259 258 256 255 254 254 255 256 256 255 253 251 249 246 246 247 247 247 248 248 247 247 247 247 247 248 248 248 249 249 249 250 249 248 247 242 237 236 237 237 234 233 234 229 225 226 225 222 221 220 220 221 221 224 225 224 223 224 229 230 232 231 229 237 244 237 233 231 218 212 215 211 209 215 218 221 224 230 242 252 258 263
267 264 261 259 258 256 256 256 255 253 252 252 254 254 254 252 250 249 249 246 244 245 245 245 246 246 246 246 245 245 245 245 245 244 246 247 247 247 247 247 246 242 239 235 234 235 232 232 236 233 226 226 226 223 221 221 221 222 223 224 225 227 224 222 224 226 230 235 233 235 245 243 234 228 218 210 212 210 207 213 220 219 218 224 234 246 254 256
265 261 259 257 256 254 254 253 253 252 250 251 252 252 252 251 249 248 247 245 243 243 244 244 243 244 244 243 243 243 242 242 243 242 243 245 244 244 244 243 243 240 239 237 234 236 233 228 232 235 228 225 227 225 222 221 220 220 222 223 225 228 228 227 230 229 228 236 238 236 241 245 238 229 221 212 206 205 204 205 214 217 212 214 226 237 243 247
263 259 256 255 254 253 252 251 251 250 250 250 251 251 250 248 246 245 244 244 242 242 242 241 241 241 240 240 241 242 239 239 242 242 241 243 243 243 242 240 240 238 235 236 235 236 237 230 229 235 231 225 226 226 224 223 221 220 221 222 224 227 227 228 232 231 228 232 238 237 237 242 244 236 225 213 205 205 207 207 211 215 213 212 224 234 230 228
261 257 254 253 252 251 250 250 249 249 249 249 248 248 246 245 243 242 241 242 241 240 240 240 239 239 238 237 238 240 238 237 240 241 240 242 242 242 241 237 237 236 234 235 235 235 237 232 226 231 233 228 227 228 226 225 224 224 223 223 224 227 228 228 231 230 229 229 233 240 239 238 244 243 229 215 211 211 213 216 215 214 215 213 219 228 221 216
259 256 253 251 249 249 248 248 248 248 247 247 246 245 245 243 242 240 239 240 240 240 239 239 239 238 237 236 236 237 237 235 237 239 239 241 240 238 240 236 233 234 232 234 235 234 235 234 228 230 235 233 229 230 229 226 225 225 225 224 225 228 228 229 232 232 232 230 229 239 244 237 239 244 232 217 217 218 217 219 217 212 211 211 214 220 220 221
256 254 252 250 248 248 247 247 247 247 246 245 244 243 243 241 239 238 237 237 238 239 238 238 238 237 236 236 234 235 236 235 235 237 238 240 239 238 239 237 232 231 230 229 232 232 232 234 232 230 235 235 231 231 231 228 225 225 226 225 224 228 230 232 235 235 235 236 233 235 241 237 235 238 232 219 219 221 221 219 217 214 210 207 213 222 228 234
254 252 250 248 246 246 246 246 245 245 244 243 242 240 240 239 238 236 236 236 237 238 238 238 237 236 235 234 233 233 234 233 233 235 237 238 238 236 235 235 233 230 228 226 228 231 232 234 234 230 231 233 230 229 231 230 227 227 228 228 225 226 229 231 234 235 236 239 237 238 240 240 240 240 236 232 226 220 220 219 216 214 209 204 210 220 230 238
253 250 249 248 246 245 245 244 243 243 242 241 241 240 239 238 237 236 236 236 236 236 237 237 236 235 234 232 231 230 231 232 231 232 234 236 234 232 231 232 232 229 227 226 227 231 232 233 236 233 232 234 232 232 234 233 232 231 231 231 229 227 227 230 232 233 235 236 236 239 242 243 244 244 242 238 229 220 218 220 219 215 207 207 214 217 226 236
251 250 249 248 246 244 243 242 241 240 240 239 238 237 237 236 235 234 233 234 235 235 235 235 234 233 231 230 229 228 228 230 230 229 232 233 231 230 229 229 230 229 229 229 231 233 231 231 235 235 234 236 236 238 240 239 237 236 234 233 233 230 228 228 231 231 234 237 237 238 241 241 240 243 241 235 227 221 218 220 223 221 212 214 222 221 225 233
250 249 249 248 246 244 243 240 238 236 236 236 234 233 233 233 232 231 231 232 233 233 233 233 233 232 230 229 228 226 225 227 228 227 229 230 229 228 228 229 228 228 230 231 232 234 233 234 239 239 237 237 236 237 240 241 240 239 238 237 236 235 231 229 231 231 232 236 238 237 238 239 236 236 239 237 230 224 222 222 223 222 218 219 224 223 225 230
250 250 249 248 246 245 243 240 238 235 233 233 231 229 229 230 230 230 229 229 230 230 230 230 231 230 229 227 226 225 223 224 226 226 226 227 226 225 227 229 228 227 227 229 231 233 234 237 240 240 240 241 239 237 238 241 242 240 240 240 240 240 238 234 234 234 233 235 238 238 239 240 237 234 237 240 237 229 226 226 225 221 215 212 215 221 228 234
252 250 250 249 246 244 243 242 240 236 232 230 228 227 227 227 228 228 227 227 227 227 228 228 228 228 227 226 225 224 222 221 223 224 223 223 223 222 224 226 227 228 228 229 232 232 234 237 239 239 240 240 240 239 238 240 242 241 240 241 241 241 241 240 238 237 237 239 240 241 241 242 240 236 235 239 242 239 232 228 230 228 220 214 215 222 231 237
253 251 250 250 248 245 242 241 240 238 234 231 228 226 225 225 225 225 225 225 225 225 226 226 225 224 223 223 223 222 220 220 219 221 221 221 219 218 220 222 223 225 227 229 231 232 233 235 237 237 238 238 237 238 238 238 240 241 240 239 239 239 239 240 239 237 238 240 241 242 243 244 244 242 239 238 242 244 239 232 231 231 226 220 220 223 228 232
253 252 250 249 248 245 242 239 239 238 236 233 230 228 226 224 224 223 223 224 223 220 220 221 221 221 220 221 221 220 219 218 217 218 220 219 217 215 215 217 219 221 224 227 228 230 233 234 234 235 236 238 237 238 240 240 241 242 240 238 238 238 237 238 240 240 238 239 240 241 242 244 245 245 243 239 240 244 243 236 230 230 228 224 220 223 227 228
252 250 249 247 245 244 242 238 236 237 236 235 232 229 228 226 224 223 221 221 220 218 217 219 220 221 220 219 219 219 219 217 216 218 220 219 217 216 215 216 219 221 224 226 226 230 234 234 232 234 235 237 238 238 239 240 241 242 241 239 241 242 242 241 241 242 241 239 239 241 241 243 244 244 244 242 240 242 243 238 232 231 230 227 223 224 227 228
Height
5897 5897 5896 5896 5896 5895 5895 5895 5894 5894 5894 5894 5894 5894 5895 5895 5896 5897 5898 5899 5900 5901 5901 5902 5902 5903 5903 5904 5903 5903 5903 5903 5903 5903 5903 5903 5904 5905 5906 5907 5908 5909 5910 5911 5913 5915 5916 5917 5918 5919 5920 5920 5921 5922 5922 5922 5922 5922 5922 5922 5923 5923 5923 5923 5923 5923 5922 5921 5921 5920 5920 5920 5920 5920 5920 5920 5919 5918 5917 5916 5916 5916 5917 5918 5918 5920 5919 5918
5896 5896 5895 5895 5895 5894 5894 5894 5893 5893 5893 5893 5893 5893 5893 5893 5894 5895 5896 5897 5898 5899 5899 5900 5901 5902 5902 5902 5902 5902 5902 5902 5902 5902 5902 5903 5904 5905 5906 5907 5908 5908 5909 5911 5912 5913 5915 5916 5917 5919 5919 5920 5921 5921 5922 5922 5922 5922 5922 5923 5923 5923 5923 5923 5923 5922 5922 5922 5921 5921 5920 5919 5920 5920 5920 5920 5919 5919 5918 5917 5917 5917 5917 5918 5918 5920 5919 5918
5895 5895 5894 5894 5894 5893 5893 5893 5892 5892 5892 5892 5892 5892 5891 5891 5891 5892 5893 5895 5896 5897 5897 5898 5899 5900 5900 5901 5901 5901 5901 5901 5901 5901 5901 5902 5904 5904 5905 5906 5907 5907 5908 5909 5911 5912 5913 5915 5916 5918 5919 5920 5921 5921 5922 5922 5922 5922 5922 5923 5923 5923 5923 5923 5923 5922 5922 5922 5921 5921 5920 5919 5919 5920 5920 5920 5919 5919 5919 5918 5918 5917 5917 5917 5918 5920 5919 5919
5894 5893 5893 5893 5892 5892 5892 5891 5891 5891 5891 5891 5891 5891 5890 5890 5890 5890 5891 5892 5893 5894 5895 5896 5897 5898 5899 5899 5900 5899 5899 5899 5899 5900 5900 5901 5902 5903 5904 5905 5906 5906 5907 5908 5909 5911 5912 5914 5915 5917 5918 5920 5920 5921 5922 5922 5922 5922 5922 5923 5923 5923 5923 5923 5923 5922 5923 5922 5921 5921 5920 5919 5919 5919 5920 5920 5919 5919 5919 5918 5918 5918 5918 5918 5918 5919 5919 5919
5892 5892 5892 5891 5891 5891 5890 5890 5890 5889 5889 5889 5889 5889 5889 5889 5888 5888 5888 5889 5890 5891 5892 5893 5894 5896 5897 5897 5898 5898 5897 5897 5898 5899 5899 5899 5900 5901 5902 5904 5904 5905 5906 5907 5909 5910 5911 5913 5915 5916 5918 5919 5920 5921 5922 5922 5922 5922 5923 5923 5923 5923 5923 5923 5923 5922 5922 5922 5922 5921 5921 5920 5919 5919 5920 5920 5919 5919 5919 5919 5918 5918 5918 5918 5918 5919 5919 5919
5891 5891 5890 5890 5890 5889 5889 5889 5888 5888 5888 5888 5888 5888 5887 5887 5887 5887 5886 5887 5888 5888 5890 5891 5892 5893 5894 5895 5896 5896 5896 5896 5896 5896 5897 5898 5898 5899 5901 5902 5903 5904 5905 5906 5908 5909 5911 5912 5914 5916 5917 5919 5920 5921 5921 5922 5922 5922 5922 5922 5923 5923 5923 5923 5923 5922 5922 5922 5922 5921 5921 5920 5919 5919 5919 5919 5919 5919 5920 5919 5919 5918 5919 5919 5919 5919 5919 5920
5890 5889 5889 5888 5888 5888 5888 5887 5887 5887 5887 5887 5887 5886 5886 5886 5886 5885 5885 5885 5885 5886 5887 5888 5889 5890 5892 5893 5893 5894 5894 5893 5893 5894 5895 5896 5897 5898 5899 5901 5902 5903 5904 5905 5907 5909 5910 5911 5913 5915 5916 5918 5919 5920 5921 5921 5921 5922 5922 5922 5922 5922 5922 5922 5922 5922 5922 5922 5922 5921 5921 5920 5919 5919 5919 5919 5920 5919 5920 5920 5919 5919 5919 5919 5919 5920 5920 5920
5888 5888 5887 5887 5886 5886 5886 5886 5885 5885 5885 5885 5885 5885 5884 5884 5884 5884 5884 5883 5883 5884 5885 5885 5886 5887 5889 5890 5891 5892 5891 5890 5892 5893 5893 5895 5896 5897 5898 5899 5901 5902 5903 5904 5906 5908 5909 5911 5912 5914 5915 5917 5918 5919 5920 5921 5921 5921 5922 5922 5922 5922 5922 5922 5922 5922 5922 5922 5922 5921 5921 5920 5920 5919 5919 5919 5920 5919 5920 5920 5920 5919 5919 5919 5920 5920 5920 5920
5887 5886 5886 5885 5885 5885 5884 5884 5884 5884 5884 5884 5884 5883 5883 5882 5882 5882 5882 5882 5882 5882 5883 5884 5884 5885 5886 5887 5888 5889 5887 5888 5891 5891 5891 5894 5895 5895 5897 5898 5899 5900 5902 5903 5904 5906 5907 5910 5912 5913 5914 5916 5917 5918 5919 5920 5921 5921 5921 5921 5922 5922 5922 5922 5922 5922 5922 5922 5922 5922 5921 5921 5920 5920 5919 5920 5920 5919 5920 5920 5920 5920 5920 5920 5920 5920 5921 5921
5885 5884 5884 5884 5883 5883 5883 5882 5882 5882 5882 5882 5882 5882 5881 5881 5880 5880 5880 5880 5880 5880 5881 5882 5882 5883 5884 5885 5886 5885 5884 5886 5889 5889 5889 5892 5893 5894 5895 5896 5898 5899 5900 5901 5903 5905 5907 5909 5910 5911 5913 5914 5916 5917 5918 5918 5919 5920 5920 5921 5921 5921 5921 5922 5922 5922 5922 5922 5922 5922 5921 5921 5920 5920 5920 5920 5919 5919 5920 5920 5920 5921 5920 5920 5920 5921 5921 5921
5883 5882 5882 5882 5881 5881 5881 5880 5880 5880 5880 5880 5880 5880 5880 5879 5879 5878 5878 5878 5878 5878 5879 5879 5880 5881 5881 5882 5882 5880 5882 5885 5886 5887 5887 5889 5891 5892 5893 5895 5896 5897 5898 5900 5901 5903 5905 5907 5908 5909 5911 5912 5914 5916 5917 5917 5918 5919 5920 5920 5920 5921 5921 5922 5922 5922 5922 5922 5922 5922 5922 5921 5920 5920 5920 5920 5919 5920 5920 5921 5921 5921 5921 5921 5921 5921 5922 5922
5880 5880 5880 5879 5879 5879 5879 5878 5878 5878 5878 5878 5878 5878 5878 5877 5877 5877 5877 5876 5876 5876 5876 5877 5878 5879 5879 5879 5878 5877 5882 5884 5884 5885 5885 5888 5890 5890 5891 5892 5894 5895 5897 5898 5899 5901 5902 5903 5905 5908 5909 5911 5913 5915 5916 5916 5917 5918 5919 5920 5920 5920 5921 5921 5922 5922 5922 5922 5922 5922 5922 5921 5921 5920 5920 5919 5919 5920 5920 5921 5921 5921 5921 5922 5922 5922 5923 5923
5878 5878 5877 5877 5877 5876 5876 5876 5876 5876 5876 5876 5876 5876 5876 5875 5875 5875 5875 5875 5875 5874 5874 5875 5875 5876 5877 5876 5875 5877 5881 5882 5881 5882 5884 5886 5887 5888 5889 5890 5892 5893 5895 5896 5897 5898 5899 5901 5904 5905 5908 5910 5911 5913 5915 5916 5916 5917 5918 5919 5919 5919 5920 5921 5921 5921 5921 5921 5921 5921 5921 5921 5921 5921 5920 5920 5920 5920 5920 5921 5921 5921 5921 5922 5922 5922 5923 5924
5876 5875 5875 5874 5874 5874 5874 5874 5873 5873 5873 5874 5874 5874 5874 5873 5873 5873 5873 5873 5873 5873 5873 5873 5873 5874 5874 5873 5874 5876 5879 5879 5878 5880 5882 5883 5884 5886 5887 5888 5889 5891 5892 5894 5895 5896 5898 5899 5901 5903 5906 5908 5909 5911 5914 5915 5916 5916 5917 5918 5918 5919 5919 5920 5920 5921 5921 5921 5921 5921 5921 5921 5921 5921 5920 5920 5920 5920 5921 5921 5921 5922 5922 5922 5922 5923 5923 5924
5873 5873 5872 5872 5872 5871 5871 5871 5871 5871 5871 5871 5871 5871 5871 5871 5871 5871 5870 5870 5871 5871 5871 5871 5870 5871 5871 5871 5873 5874 5875 5876 5875 5877 5879 5880 5881 5883 5884 5886 5887 5889 5890 5892 5894 5896 5898 5899 5900 5902 5904 5905 5907 5911 5913 5914 5914 5915 5916 5917 5917 5917 5918 5919 5919 5920 5920 5920 5920 5920 5921 5921 5921 5922 5921 5920 5920 5920 5921 5921 5921 5922 5922 5922 5922 5923 5923 5924
5871 5870 5870 5869 5869 5869 5868 5868 5868 5868 5868 5868 5868 5868 5868 5868 5868 5868 5868 5868 5868 5869 5869 5868 5868 5869 5869 5869 5870 5871 5872 5872 5872 5874 5876 5877 5878 5880 5882 5883 5885 5886 5888 5890 5892 5894 5896 5898 5899 5900 5902 5903 5906 5909 5911 5912 5913 5913 5915 5915 5916 5917 5918 5918 5919 5919 5920 5920 5920 5919 5920 5921 5921 5921 5921 5920 5920 5920 5920 5921 5921 5922 5922 5923 5923 5923 5923 5924
5868 5867 5867 5866 5866 5866 5865 5865 5865 5865 5864 5865 5865 5865 5865 5866 5866 5866 5865 5865 5865 5866 5866 5866 5866 5866 5866 5867 5867 5868 5870 5870 5870 5871 5873 5875 5875 5877 5879 5881 5882 5884 5886 5888 5890 5892 5893 5895 5897 5898 5900 5902 5904 5906 5908 5910 5911 5913 5914 5914 5915 5916 5917 5918 5918 5918 5919 5919 5919 5919 5919 5920 5921 5920 5920 5920 5920 5920 5920 5921 5921 5922 5922 5923 5923 5923 5924 5924
5865 5864 5864 5863 5863 5863 5863 5862 5862 5862 5861 5861 5862 5862 5862 5862 5863 5863 5862 5862 5863 5863 5863 5864 5864 5864 5864 5864 5864 5865 5868 5868 5868 5868 5870 5872 5873 5874 5876 5877 5879 5881 5883 5885 5887 5889 5890 5892 5895 5896 5897 5899 5901 5903 5906 5909 5911 5913 5914 5914 5914 5915 5916 5916 5917 5917 5918 5918 5918 5918 5919 5920 5920 5920 5919 5920 5920 5920 5920 5921 5921 5922 5922 5923 5923 5923 5924 5924
5862 5861 5860 5860 5859 5859 5859 5859 5859 5859 5858 5858 5858 5858 5858 5859 5859 5859 5860 5860 5860 5860 5860 5861 5861 5861 5861 5861 5861 5863 5865 5866 5866 5866 5867 5869 5870 5871 5873 5875 5876 5878 5880 5882 5885 5886 5888 5890 5891 5892 5893 5896 5899 5902 5905 5908 5910 5912 5913 5914 5914 5914 5914 5915 5916 5916 5916 5917 5917 5918 5918 5919 5919 5919 5919 5919 5919 5920 5920 5920 5921 5922 5922 5923 5923 5924 5924 5924
5858 5858 5857 5856 5855 5856 5856 5856 5855 5855 5855 5855 5855 5855 5855 5855 5855 5856 5857 5857 5857 5857 5857 5858 5859 5858 5858 5859 5859 5860 5861 5863 5863 5863 5864 5866 5867 5868 5870 5872 5874 5875 5877 5879 5882 5884 5885 5886 5888 5889 5892 5895 5898 5901 5904 5906 5908 5910 5911 5912 5913 5914 5913 5914 5915 5915 5915 5916 5917 5917 5917 5918 5918 5918 5918 5918 5919 5919 5920 5920 5920 5921 5922 5923 5924 5924 5924 5924
5854 5854 5853 5853 5852 5851 5852 5852 5851 5852 5852 5851 5851 5851 5851 5851 5851 5852 5853 5853 5853 5854 5854 5855 5856 5855 5854 5856 5857 5857 5858 5859 5860 5860 5861 5862 5863 5865 5866 5869 5871 5872 5874 5876 5878 5880 5882 5884 5885 5888 5892 5895 5897 5900 5902 5904 5906 5907 5909 5910 5912 5913 5912 5912 5913 5913 5914 5915 5916 5916 5917 5917 5917 5918 5918 5917 5918 5919 5919 5919 5920 5921 5922 5923 5923 5924 5924 5925
5849 5849 5849 5848 5847 5847 5848 5848 5847 5848 5848 5848 5847 5847 5847 5847 5848 5848 5849 5850 5849 5850 5851 5851 5852 5852 5851 5852 5854 5854 5855 5856 5856 5856 5858 5859 5860 5861 5863 5866 5868 5870 5871 5872 5874 5876 5878 5881 5884 5887 5890 5892 5895 5897 5899 5902 5904 5905 5907 5908 5910 5912 5911 5910 5910 5911 5912 5914 5915 5915 5916 5916 5916 5917 5917 5917 5917 5918 5918 5919 5919 5920 5921 5922 5923 5924 5924 5925
5845 5845 5844 5844 5843 5843 5843 5843 5843 5843 5843 5843 5843 5843 5843 5843 5843 5844 5845 5846 5846 5846 5847 5848 5849 5849 5848 5849 5850 5851 5852 5852 5852 5853 5855 5856 5857 5858 5859 5863 5865 5866 5867 5868 5871 5873 5875 5879 5883 5884 5886 5889 5892 5894 5896 5899 5900 5902 5904 5905 5907 5909 5908 5908 5909 5910 5911 5912 5913 5914 5914 5914 5914 5915 5916 5916 5916 5917 5917 5918 5918 5919 5920 5921 5922 5923 5923 5924
5840 5840 5839 5839 5839 5838 5838 5839 5839 5839 5839 5839 5839 5839 5839 5839 5839 5840 5840 5842 5843 5842 5842 5844 5846 5846 5846 5846 5846 5847 5849 5849 5849 5850 5851 5853 5854 5854 5856 5859 5861 5862 5863 5866 5869 5870 5873 5877 5879 5880 5883 5886 5888 5890 5893 5895 5897 5900 5902 5903 5906 5906 5906 5907 5908 5908 5909 5910 5911 5912 5912 5913 5913 5914 5914 5915 5915 5916 5916 5917 5917 5918 5919 5920 5921 5922 5923 5923
5835 5835 5835 5834 5834 5833 5833 5834 5834 5834 5835 5835 5835 5835 5835 5835 5835 5836 5836 5837 5839 5838 5838 5840 5841 5842 5842 5843 5843 5844 5845 5845 5845 5847 5848 5849 5851 5851 5852 5854 5856 5857 5861 5864 5865 5867 5869 5872 5875 5876 5880 5883 5885 5887 5890 5893 5896 5898 5899 5902 5904 5904 5905 5906 5906 5906 5907 5907 5909 5910 5910 5912 5912 5913 5913 5913 5914 5914 5915 5916 5916 5917 5918 5919 5920 5921 5922 5922
5830 5830 5830 5829 5829 5828 5828 5828 5829 5829 5830 5830 5830 5830 5831 5831 5831 5832 5832 5832 5834 5834 5834 5835 5836 5837 5838 5839 5839 5840 5841 5841 5841 5843 5844 5845 5847 5848 5848 5850 5852 5854 5857 5859 5861 5862 5864 5867 5871 5873 5877 5880 5881 5884 5887 5890 5893 5895 5898 5901 5901 5902 5904 5903 5903 5904 5905 5906 5908 5908 5909 5910 5910 5911 5912 5912 5912 5912 5913 5914 5915 5916 5917 5917 5918 5919 5920 5921
5825 5825 5825 5824 5824 5823 5822 5822 5823 5824 5824 5825 5826 5825 5826 5827 5827 5828 5828 5827 5829 5831 5830 5830 5831 5833 5834 5834 5835 5836 5836 5837 5838 5839 5841 5842 5842 5844 5845 5846 5848 5849 5851 5854 5856 5858 5861 5864 5868 5870 5873 5876 5877 5881 5885 5888 5891 5894 5897 5898 5898 5900 5902 5901 5901 5902 5904 5905 5905 5905 5907 5907 5907 5908 5909 5910 5910 5910 5912 5913 5914 5915 5915 5916 5917 5918 5919 5919
5819 5819 5820 5819 5818 5818 5817 5816 5817 5818 5819 5819 5820 5820 5820 5822 5822 5823 5823 5822 5824 5827 5826 5826 5827 5828 5829 5830 5831 5831 5832 5833 5834 5835 5837 5838 5838 5840 5841 5842 5845 5845 5847 5851 5853 5855 5858 5862 5866 5868 5869 5871 5874 5878 5882 5885 5889 5892 5893 5894 5896 5898 5899 5899 5899 5900 5902 5903 5901 5903 5904 5903 5904 5905 5906 5908 5909 5909 5911 5912 5912 5913 5913 5914 5915 5916 5917 5917
5812 5812 5813 5813 5812 5813 5812 5811 5811 5812 5814 5814 5814 5814 5815 5816 5817 5818 5817 5816 5820 5822 5822 5823 5823 5823 5824 5826 5827 5827 5828 5828 5829 5831 5833 5834 5834 5836 5837 5838 5841 5842 5843 5847 5849 5850 5853 5858 5862 5863 5864 5868 5872 5876 5878 5881 5885 5888 5889 5892 5894 5895 5896 5897 5897 5899 5901 5899 5898 5901 5901 5901 5903 5904 5905 5905 5906 5908 5910 5911 5911 5911 5911 5912 5913 5913 5914 5915
5806 5806 5806 5806 5806 5806 5806 5805 5805 5805 5807 5808 5808 5809 5810 5810 5812 5812 5810 5812 5817 5818 5818 5818 5818 5819 5820 5821 5822 5823 5824 5824 5825 5827 5828 5830 5831 5832 5833 5834 5836 5837 5838 5842 5843 5843 5846 5852 5856 5856 5859 5865 5870 5872 5872 5876 5881 5883 5885 5890 5891 5892 5893 5893 5894 5896 5897 5894 5894 5898 5898 5899 5901 5902 5903 5903 5905 5907 5908 5908 5909 5909 5910 5910 5911 5911 5912 5913
5799 5799 5799 5800 5800 5799 5799 5799 5799 5799 5799 5801 5802 5803 5803 5804 5805 5804 5803 5810 5814 5813 5813 5813 5814 5815 5815 5816 5818 5819 5820 5819 5820 5822 5824 5826 5827 5828 5829 5829 5831 5832 5833 5836 5838 5838 5840 5847 5850 5851 5855 5861 5865 5865 5867 5873 5877 5878 5882 5885 5887 5888 5889 5889 5890 5891 5889 5888 5892 5896 5896 5896 5897 5900 5901 5901 5904 5905 5905 5906 5907 5908 5909 5909 5909 5909 5909 5910
5791 5792 5792 5793 5793 5793 5792 5792 5793 5793 5793 5794 5795 5796 5797 5797 5797 5797 5801 5808 5810 5807 5808 5809 5809 5810 5810 5811 5813 5814 5815 5816 5816 5818 5820 5821 5822 5824 5825 5826 5827 5828 5829 5832 5835 5835 5837 5843 5847 5847 5851 5856 5858 5860 5864 5868 5870 5873 5877 5879 5881 5883 5884 5884 5885 5884 5883 5885 5891 5894 5893 5891 5893 5898 5899 5899 5902 5903 5904 5905 5906 5906 5907 5908 5908 5908 5907 5907
5784 5784 5784 5785 5786 5786 5785 5786 5785 5785 5786 5788 5788 5789 5790 5788 5788 5793 5799 5803 5803 5802 5802 5803 5803 5804 5805 5806 5807 5809 5811 5811 5812 5813 5815 5817 5818 5820 5821 5822 5823 5825 5826 5828 5831 5832 5833 5838 5841 5843 5846 5849 5852 5855 5859 5862 5864 5868 5871 5873 5875 5877 5878 5879 5880 5881 5882 5885 5889 5889 5888 5887 5890 5896 5898 5898 5901 5901 5902 5903 5904 5905 5906 5906 5907 5907 5907 5906
5776 5776 5776 5777 5778 5778 5778 5778 5778 5778 5779 5780 5780 5781 5782 5780 5783 5789 5794 5797 5797 5796 5795 5796 5798 5799 5800 5801 5802 5805 5806 5806 5808 5809 5810 5812 5813 5815 5817 5818 5819 5820 5821 5822 5825 5827 5829 5832 5835 5839 5842 5844 5846 5850 5855 5859 5861 5864 5868 5870 5872 5873 5874 5876 5877 5879 5881 5884 5886 5884 5882 5885 5888 5894 5897 5897 5898 5899 5900 5901 5902 5903 5904 5905 5905 5906 5907 5907
5766 5767 5767 5768 5768 5769 5769 5769 5770 5770 5770 5771 5772 5773 5772 5774 5780 5784 5787 5790 5791 5790 5789 5790 5791 5793 5794 5795 5797 5799 5801 5802 5804 5805 5805 5807 5809 5811 5812 5814 5815 5816 5817 5817 5819 5822 5824 5828 5832 5836 5839 5840 5843 5847 5851 5855 5857 5862 5865 5865 5866 5870 5873 5874 5875 5879 5882 5883 5883 5878 5878 5883 5887 5890 5894 5895 5895 5896 5897 5899 5900 5901 5903 5903 5903 5905 5906 5907
5756 5757 5757 5758 5759 5759 5760 5760 5761 5761 5761 5762 5762 5763 5765 5771 5776 5776 5778 5783 5784 5783 5782 5782 5784 5787 5788 5790 5792 5794 5796 5797 5799 5800 5801 5803 5804 5806 5808 5809 5811 5812 5813 5814 5815 5817 5821 5823 5825 5830 5834 5836 5840 5844 5846 5849 5852 5856 5858 5858 5863 5869 5871 5872 5874 5877 5878 5878 5878 5874 5874 5881 5884 5886 5891 5893 5892 5894 5895 5896 5898 5899 5900 5902 5902 5903 5905 5906
5746 5746 5747 5748 5749 5749 5750 5750 5751 5751 5752 5752 5752 5755 5760 5765 5768 5768 5770 5776 5777 5776 5775 5775 5778 5781 5783 5785 5787 5788 5790 5792 5794 5796 5796 5798 5799 5800 5802 5804 5806 5807 5808 5810 5812 5813 5817 5819 5819 5825 5830 5831 5836 5841 5842 5845 5848 5850 5853 5856 5860 5863 5865 5868 5871 5871 5871 5871 5873 5873 5872 5876 5880 5882 5887 5890 5889 5891 5893 5894 5895 5897 5898 5900 5901 5902 5903 5904
5735 5735 5735 5737 5738 5739 5739 5740 5740 5741 5742 5742 5743 5748 5753 5756 5758 5761 5764 5768 5769 5768 5768 5769 5772 5774 5777 5780 5781 5782 5785 5786 5788 5791 5791 5792 5794 5796 5797 5799 5801 5803 5804 5806 5807 5808 5812 5815 5815 5819 5825 5827 5830 5834 5835 5839 5843 5847 5850 5852 5854 5855 5858 5861 5862 5864 5866 5866 5868 5871 5870 5870 5874 5879 5883 5886 5887 5889 5891 5892 5893 5894 5896 5898 5899 5900 5901 5902
5724 5723 5723 5725 5727 5727 5728 5729 5729 5730 5730 5732 5735 5739 5744 5747 5750 5754 5756 5759 5760 5760 5761 5763 5765 5768 5771 5774 5774 5776 5779 5780 5781 5785 5787 5787 5789 5791 5792 5794 5796 5798 5800 5801 5803 5803 5806 5812 5812 5812 5818 5822 5823 5825 5828 5831 5837 5840 5842 5845 5848 5849 5853 5855 5856 5858 5863 5863 5865 5868 5867 5865 5869 5876 5879 5882 5885 5886 5887 5889 5890 5891 5893 5895 5897 5898 5899 5900
5711 5710 5710 5713 5714 5714 5716 5717 5718 5719 5719 5723 5728 5731 5735 5738 5741 5744 5747 5749 5750 5751 5753 5756 5758 5760 5764 5766 5767 5769 5773 5774 5775 5779 5781 5782 5784 5785 5787 5789 5791 5793 5795 5796 5799 5800 5801 5807 5809 5807 5811 5815 5815 5818 5823 5827 5831 5832 5834 5839 5842 5842 5847 5852 5852 5854 5858 5861 5862 5862 5862 5864 5867 5871 5875 5878 5881 5883 5884 5885 5887 5888 5890 5891 5893 5895 5896 5897
5697 5697 5698 5701 5701 5701 5704 5704 5706 5708 5710 5715 5719 5720 5723 5726 5730 5734 5737 5738 5740 5742 5745 5748 5750 5753 5756 5759 5761 5763 5766 5768 5769 5773 5775 5777 5779 5781 5782 5785 5787 5788 5791 5792 5794 5796 5797 5802 5805 5803 5804 5809 5813 5816 5821 5825 5826 5827 5830 5834 5837 5838 5844 5846 5845 5848 5853 5855 5857 5857 5856 5862 5866 5866 5869 5875 5878 5880 5881 5882 5883 5885 5887 5888 5890 5892 5893 5895
5683 5683 5684 5688 5688 5688 5690 5692 5694 5697 5699 5704 5708 5710 5712 5716 5721 5725 5727 5728 5730 5733 5736 5739 5742 5746 5749 5752 5755 5756 5759 5761 5763 5766 5769 5771 5774 5775 5776 5780 5783 5784 5786 5787 5789 5791 5793 5796 5798 5800 5802 5807 5811 5812 5815 5819 5821 5823 5825 5830 5834 5835 5838 5839 5838 5845 5849 5848 5852 5854 5851 5856 5863 5862 5864 5869 5873 5875 5877 5878 5880 5882 5883 5884 5887 5890 5891 5892
5668 5669 5670 5673 5675 5676 5677 5680 5683 5684 5688 5694 5697 5698 5701 5706 5711 5714 5716 5718 5720 5723 5727 5730 5735 5738 5741 5745 5748 5749 5752 5755 5757 5760 5762 5765 5768 5771 5772 5775 5777 5779 5780 5783 5784 5786 5788 5789 5792 5797 5799 5802 5806 5807 5808 5811 5815 5816 5818 5823 5828 5829 5833 5836 5837 5843 5845 5843 5848 5850 5845 5848 5857 5858 5860 5865 5869 5872 5873 5875 5877 5879 5880 5882 5884 5887 5889 5890
5653 5656 5656 5657 5661 5663 5664 5667 5670 5672 5676 5681 5683 5686 5691 5695 5699 5703 5706 5709 5712 5715 5718 5722 5727 5731 5734 5738 5741 5743 5746 5748 5751 5753 5756 5759 5763 5766 5768 5769 5772 5774 5776 5778 5779 5780 5782 5785 5788 5792 5794 5796 5799 5801 5801 5804 5808 5811 5813 5817 5820 5824 5829 5832 5834 5839 5837 5836 5843 5843 5837 5843 5852 5855 5857 5862 5865 5868 5870 5871 5874 5875 5876 5878 5880 5883 5885 5887
5639 5642 5642 5643 5647 5650 5651 5654 5657 5659 5663 5667 5671 5676 5681 5684 5689 5694 5697 5700 5703 5706 5709 5713 5718 5722 5726 5730 5733 5736 5739 5741 5744 5747 5750 5753 5758 5761 5762 5763 5766 5768 5770 5772 5773 5775 5779 5781 5782 5786 5788 5790 5793 5795 5797 5801 5805 5807 5810 5811 5814 5820 5823 5825 5829 5830 5827 5829 5836 5834 5833 5843 5850 5850 5853 5858 5861 5864 5866 5868 5869 5870 5873 5875 5877 5880 5882 5883
5625 5628 5629 5629 5633 5637 5639 5641 5645 5648 5651 5655 5660 5666 5669 5673 5678 5683 5687 5690 5693 5697 5700 5704 5709 5713 5717 5721 5725 5729 5732 5735 5738 5741 5744 5747 5752 5755 5757 5758 5761 5763 5765 5767 5769 5771 5775 5776 5776 5780 5784 5786 5790 5794 5797 5799 5800 5802 5805 5808 5809 5813 5817 5820 5820 5820 5821 5825 5826 5826 5831 5840 5845 5846 5849 5853 5856 5859 5862 5865 5866 5867 5870 5873 5874 5875 5877 5878
5612 5615 5617 5617 5620 5624 5626 5629 5632 5634 5638 5643 5649 5654 5657 5662 5667 5672 5676 5680 5684 5688 5691 5695 5699 5704 5709 5714 5718 5722 5726 5729 5732 5735 5738 5742 5746 5749 5751 5753 5756 5758 5761 5764 5765 5768 5770 5771 5772 5776 5779 5782 5787 5791 5792 5793 5795 5798 5801 5803 5804 5806 5811 5813 5811 5814 5820 5819 5816 5821 5828 5832 5836 5842 5844 5847 5851 5855 5858 5861 5862 5863 5866 5868 5870 5871 5873 5874
5599 5602 5604 5606 5610 5612 5613 5616 5619 5624 5629 5633 5637 5643 5647 5651 5656 5661 5666 5670 5674 5678 5682 5686 5691 5696 5701 5706 5710 5715 5719 5722 5725 5728 5733 5736 5739 5743 5746 5749 5752 5754 5757 5759 5761 5763 5766 5767 5770 5772 5775 5779 5783 5786 5788 5789 5790 5793 5795 5797 5799 5801 5803 5806 5808 5812 5816 5812 5812 5819 5824 5824 5830 5837 5840 5843 5846 5850 5854 5856 5857 5859 5861 5863 5866 5867 5869 5871
5587 5590 5592 5595 5600 5602 5604 5607 5610 5615 5620 5622 5626 5632 5636 5641 5645 5649 5654 5659 5664 5668 5673 5678 5683 5688 5694 5698 5702 5707 5711 5714 5718 5722 5726 5729 5733 5737 5741 5743 5746 5750 5753 5755 5756 5759 5762 5764 5766 5769 5771 5774 5777 5781 5784 5785 5786 5788 5790 5792 5794 5796 5797 5800 5804 5808 5810 5809 5811 5817 5818 5818 5823 5831 5836 5840 5841 5844 5848 5851 5852 5854 5856 5858 5861 5863 5866 5868
5576 5580 5582 5585 5590 5594 5596 5599 5601 5605 5609 5613 5617 5622 5625 5630 5633 5637 5642 5648 5654 5661 5666 5671 5676 5680 5684 5689 5693 5699 5704 5708 5712 5715 5718 5722 5727 5732 5736 5739 5742 5745 5748 5750 5752 5755 5758 5760 5762 5764 5766 5768 5771 5775 5778 5780 5782 5783 5785 5787 5789 5791 5792 5794 5797 5801 5804 5805 5809 5813 5812 5812 5818 5826 5832 5835 5837 5838 5841 5845 5847 5849 5851 5854 5856 5859 5862 5864
5566 5570 5573 5577 5581 5585 5588 5591 5594 5597 5601 5605 5608 5611 5615 5619 5622 5627 5634 5640 5647 5652 5656 5659 5663 5668 5674 5680 5686 5691 5695 5699 5703 5707 5710 5715 5721 5726 5729 5732 5735 5738 5741 5744 5747 5750 5752 5754 5757 5759 5761 5763 5767 5770 5772 5775 5778 5778 5779 5781 5783 5785 5787 5789 5791 5794 5797 5800 5804 5805 5805 5807 5814 5821 5825 5829 5832 5834 5835 5839 5842 5844 5846 5849 5852 5855 5858 5860
5558 5561 5565 5569 5573 5577 5580 5583 5587 5590 5593 5596 5599 5603 5607 5611 5614 5620 5626 5631 5636 5640 5644 5649 5654 5660 5667 5673 5678 5682 5685 5691 5697 5701 5705 5710 5716 5720 5723 5726 5729 5732 5735 5739 5742 5745 5747 5749 5752 5755 5757 5760 5763 5765 5768 5771 5771 5770 5773 5777 5779 5781 5783 5785 5787 5789 5792 5796 5798 5798 5800 5805 5810 5814 5818 5823 5826 5828 5830 5834 5837 5840 5843 5845 5847 5851 5854 5856